When you browse on this site, cookies collect data to enhance your experience and personalize the content and advertising you see.
Visit our Privacy Policy to learn more. By continuing to use the site, you agree to this use of cookies and data.
  • In Hungary
  • List of Countries
  • For 7 days
  • Water Temperature
  • Weather Map
  • News
  • Weather Widgets
  • user-avatar
    Login

    Hourly Weather Mamaevka

    Today, 30 March, Monday

    Time Temperature Precipitation Wind Pressure Humidity
    00:00 +10°C° 0 mm 4 mps 738 mmHg 44%
    01:00 +8°C° 0 mm 4 mps 737 mmHg 46%
    02:00 +9°C° 0 mm 3 mps 737 mmHg 47%
    03:00 +8°C° 0 mm 3 mps 737 mmHg 48%
    04:00 +8°C° 0 mm 3 mps 737 mmHg 49%
    05:00 +8°C° 0 mm 3 mps 737 mmHg 49%
    06:00 +9°C° 0 mm 3 mps 737 mmHg 48%
    07:00 +10°C° 0 mm 3 mps 737 mmHg 47%
    08:00 +11°C° 0 mm 3 mps 737 mmHg 45%
    09:00 +14°C° 0 mm 3 mps 736 mmHg 40%
    10:00 +18°C° 0 mm 3 mps 736 mmHg 34%
    11:00 +21°C° 0 mm 2 mps 736 mmHg 29%
    12:00 +23°C° 0 mm 2 mps 736 mmHg 27%
    13:00 +24°C° 0 mm 2 mps 735 mmHg 25%
    14:00 +25°C° 0 mm 2 mps 735 mmHg 23%
    15:00 +25°C° 0 mm 2 mps 734 mmHg 26%
    16:00 +25°C° 0 mm 3 mps 734 mmHg 28%
    17:00 +23°C° 0 mm 4 mps 734 mmHg 30%
    18:00 +21°C° 0 mm 4 mps 734 mmHg 33%
    19:00 +19°C° 0 mm 5 mps 734 mmHg 35%
    20:00 +16°C° 0 mm 5 mps 733 mmHg 38%
    21:00 +15°C° 0 mm 5 mps 733 mmHg 38%
    22:00 +14°C° 0 mm 5 mps 733 mmHg 39%
    23:00 +13°C° 0 mm 4 mps 732 mmHg 39%

    Tomorrow, 31 March, Tuesday

    Time Temperature Precipitation Wind Pressure Humidity
    00:00 +13°C° 0 mm 4 mps 732 mmHg 39%
    01:00 +13°C° 0 mm 4 mps 731 mmHg 40%
    02:00 +12°C° 0 mm 4 mps 731 mmHg 40%
    03:00 +12°C° 0 mm 4 mps 730 mmHg 41%
    04:00 +12°C° 0 mm 4 mps 730 mmHg 42%
    05:00 +12°C° 0 mm 4 mps 730 mmHg 43%
    06:00 +12°C° 0 mm 4 mps 730 mmHg 43%
    07:00 +13°C° 0 mm 4 mps 730 mmHg 43%
    08:00 +14°C° 0 mm 4 mps 730 mmHg 44%
    09:00 +18°C° 0 mm 3 mps 730 mmHg 39%
    10:00 +20°C° 0 mm 3 mps 730 mmHg 35%
    11:00 +22°C° 0 mm 3 mps 730 mmHg 31%
    12:00 +24°C° 0 mm 2 mps 730 mmHg 30%
    13:00 +25°C° 0 mm 2 mps 730 mmHg 29%
    14:00 +25°C° 0 mm 2 mps 730 mmHg 28%
    15:00 +25°C° 0 mm 3 mps 731 mmHg 29%
    16:00 +23°C° 0 mm 4 mps 731 mmHg 31%
    17:00 +23°C° 0 mm 5 mps 731 mmHg 32%
    18:00 +21°C° 0.1 mm 5 mps 732 mmHg 46%
    19:00 +19°C° 0.1 mm 6 mps 732 mmHg 59%
    20:00 +16°C° 0.1 mm 6 mps 733 mmHg 73%
    21:00 +15°C° 0.2 mm 5 mps 733 mmHg 76%
    22:00 +15°C° 0.2 mm 5 mps 733 mmHg 79%
    23:00 +14°C° 0.2 mm 4 mps 733 mmHg 83%

    Day after tomorrow, 1 April, Wednesday

    Time Temperature Precipitation Wind Pressure Humidity
    00:00 +14°C° 0 mm 4 mps 733 mmHg 82%
    01:00 +14°C° 0 mm 4 mps 733 mmHg 82%
    02:00 +14°C° 0 mm 4 mps 733 mmHg 81%
    03:00 +14°C° 0 mm 3 mps 733 mmHg 81%
    04:00 +13°C° 0 mm 3 mps 734 mmHg 81%
    05:00 +13°C° 0 mm 3 mps 734 mmHg 81%
    06:00 +14°C° 0 mm 3 mps 734 mmHg 78%
    07:00 +16°C° 0 mm 2 mps 735 mmHg 76%
    08:00 +16°C° 0 mm 2 mps 735 mmHg 73%
    09:00 +17°C° 0.2 mm 2 mps 735 mmHg 66%
    10:00 +19°C° 0.2 mm 3 mps 735 mmHg 60%
    11:00 +20°C° 0.2 mm 3 mps 736 mmHg 54%
    12:00 +21°C° 0.5 mm 4 mps 736 mmHg 52%
    13:00 +21°C° 0.5 mm 5 mps 736 mmHg 51%
    14:00 +21°C° 0.5 mm 6 mps 736 mmHg 50%
    15:00 +20°C° 0.5 mm 6 mps 736 mmHg 56%
    16:00 +19°C° 0.5 mm 6 mps 737 mmHg 62%
    17:00 +16°C° 0.5 mm 5 mps 737 mmHg 68%
    18:00 +16°C° 0.4 mm 5 mps 738 mmHg 70%
    19:00 +15°C° 0.4 mm 5 mps 738 mmHg 73%
    20:00 +14°C° 0.4 mm 5 mps 739 mmHg 75%
    21:00 +14°C° 0 mm 5 mps 739 mmHg 74%
    22:00 +13°C° 0 mm 5 mps 739 mmHg 72%
    23:00 +13°C° 0 mm 5 mps 740 mmHg 71%

    2 April, Thursday

    Time Temperature Precipitation Wind Pressure Humidity
    00:00 +12°C° 0 mm 5 mps 740 mmHg 72%
    01:00 +12°C° 0 mm 4 mps 740 mmHg 72%
    02:00 +12°C° 0 mm 4 mps 740 mmHg 73%
    03:00 +12°C° 0 mm 4 mps 740 mmHg 72%
    04:00 +12°C° 0 mm 4 mps 740 mmHg 72%
    05:00 +12°C° 0 mm 3 mps 740 mmHg 71%
    06:00 +13°C° 0 mm 4 mps 741 mmHg 69%
    07:00 +14°C° 0 mm 4 mps 741 mmHg 67%
    08:00 +14°C° 0 mm 4 mps 741 mmHg 65%
    09:00 +17°C° 0 mm 4 mps 741 mmHg 57%
    10:00 +18°C° 0 mm 4 mps 741 mmHg 50%
    11:00 +20°C° 0 mm 5 mps 741 mmHg 42%
    12:00 +20°C° 0 mm 4 mps 741 mmHg 42%
    13:00 +20°C° 0 mm 4 mps 740 mmHg 41%
    14:00 +20°C° 0 mm 3 mps 740 mmHg 40%
    15:00 +20°C° 0 mm 3 mps 740 mmHg 40%
    16:00 +20°C° 0 mm 2 mps 739 mmHg 40%
    17:00 +21°C° 0 mm 1 mps 739 mmHg 40%
    18:00 +19°C° 0 mm 2 mps 739 mmHg 44%
    19:00 +17°C° 0 mm 2 mps 739 mmHg 48%
    20:00 +14°C° 0 mm 3 mps 739 mmHg 52%
    21:00 +14°C° 0 mm 3 mps 739 mmHg 54%
    22:00 +13°C° 0 mm 3 mps 739 mmHg 56%
    23:00 +13°C° 0 mm 3 mps 739 mmHg 58%

    3 April, Friday

    Time Temperature Precipitation Wind Pressure Humidity
    00:00 +12°C° 0 mm 3 mps 739 mmHg 60%
    01:00 +13°C° 0 mm 2 mps 739 mmHg 61%
    02:00 +13°C° 0 mm 2 mps 739 mmHg 63%
    03:00 +12°C° 0 mm 2 mps 738 mmHg 62%
    04:00 +11°C° 0 mm 3 mps 738 mmHg 62%
    05:00 +11°C° 0 mm 3 mps 738 mmHg 62%
    06:00 +12°C° 0 mm 3 mps 738 mmHg 58%
    07:00 +13°C° 0 mm 3 mps 738 mmHg 54%
    08:00 +14°C° 0 mm 3 mps 738 mmHg 51%
    09:00 +18°C° 0 mm 2 mps 738 mmHg 44%
    10:00 +20°C° 0 mm 2 mps 738 mmHg 37%
    11:00 +23°C° 0 mm 1 mps 738 mmHg 31%
    12:00 +22°C° 0 mm 3 mps 738 mmHg 33%
    13:00 +22°C° 0 mm 4 mps 738 mmHg 36%
    14:00 +21°C° 0 mm 6 mps 738 mmHg 38%
    15:00 +21°C° 0 mm 5 mps 738 mmHg 39%
    16:00 +22°C° 0 mm 5 mps 737 mmHg 39%
    17:00 +22°C° 0 mm 4 mps 737 mmHg 40%
    18:00 +20°C° 0 mm 3 mps 737 mmHg 45%
    19:00 +18°C° 0 mm 3 mps 737 mmHg 50%
    20:00 +16°C° 0 mm 3 mps 737 mmHg 55%
    21:00 +16°C° 0.1 mm 2 mps 737 mmHg 56%
    22:00 +15°C° 0.1 mm 2 mps 737 mmHg 58%
    23:00 +15°C° 0.1 mm 2 mps 737 mmHg 60%

    4 April, Saturday

    Time Temperature Precipitation Wind Pressure Humidity
    00:00 +15°C° 0 mm 2 mps 737 mmHg 59%
    01:00 +14°C° 0 mm 3 mps 736 mmHg 58%
    02:00 +14°C° 0 mm 3 mps 736 mmHg 58%
    03:00 +14°C° 0 mm 3 mps 736 mmHg 56%
    04:00 +14°C° 0 mm 3 mps 736 mmHg 55%
    05:00 +14°C° 0 mm 3 mps 736 mmHg 53%
    06:00 +16°C° 0 mm 3 mps 736 mmHg 52%
    07:00 +17°C° 0 mm 3 mps 736 mmHg 50%
    08:00 +19°C° 0 mm 2 mps 737 mmHg 49%
    09:00 +21°C° 0 mm 3 mps 736 mmHg 43%
    10:00 +24°C° 0 mm 3 mps 736 mmHg 37%
    11:00 +27°C° 0 mm 3 mps 736 mmHg 31%
    12:00 +27°C° 0 mm 3 mps 736 mmHg 30%
    13:00 +28°C° 0 mm 3 mps 736 mmHg 29%
    14:00 +29°C° 0 mm 4 mps 736 mmHg 28%
    15:00 +29°C° 0 mm 3 mps 736 mmHg 28%
    16:00 +28°C° 0 mm 2 mps 735 mmHg 29%
    17:00 +28°C° 0 mm 1 mps 735 mmHg 29%
    18:00 +26°C° 0 mm 1 mps 735 mmHg 32%
    19:00 +24°C° 0 mm 1 mps 735 mmHg 34%
    20:00 +21°C° 0 mm 1 mps 735 mmHg 37%
    21:00 +20°C° 0 mm 2 mps 735 mmHg 40%
    22:00 +19°C° 0 mm 2 mps 735 mmHg 43%
    23:00 +19°C° 0 mm 2 mps 735 mmHg 46%
    Show more